Location: Borowce
(50.8255°N, 19.6209°E)
Time: 07:16:08
(UTC+00:00)

Cosmos 1536 - Pass Details

Date: 19 May 2025
Orbit: 494 x 518 km, 82.5° (Epoch: 16 June)

Event Time Altitude Azimuth Distance (km) Brightness Sun altitude
Rises 19:55:39 0° 358° (N) 2,644 7.3 -10.7°
Reaches altitude 10° 19:58:01 10° 10° (N) 1,747 6.0 -11.0°
Maximum altitude 20:01:22 28° 71° (ENE) 985 3.9 -11.3°
Enters shadow 20:03:40 16° 122° (ESE) 1,394 4.3 -11.5°
